Location: Stoke Bliss
(52.2667°N, 2.5167°W)
Time: 23:06:46
(UTC+00:00)

Cosmos 1943 Rocket - Visible Passes

Search period start: 24 June 2021 00:00
Search period end: 04 July 2021 00:00
Orbit: 814 x 842 km, 71.0° (Epoch: 24 June)

Date Brightness Start Highest point End Pass type
(mag) Time Alt. Az. Time Alt. Az. Time Alt. Az.
24 Jun 3.0 00:05:03 10° NW 00:10:01 35° WSW 00:13:11 20° SSW visible
24 Jun 2.9 22:01:49 10° NNW 22:07:08 45° NE 22:12:25 10° ESE visible
24 Jun 2.9 23:45:45 10° NW 23:50:50 40° WSW 23:54:12 20° SSW visible
25 Jun 3.0 21:42:37 10° NNW 21:47:52 41° NE 21:53:04 10° ESE visible
25 Jun 2.7 23:26:27 10° NW 23:31:40 44° WSW 23:35:14 19° S visible
26 Jun 3.2 21:23:25 10° NNW 21:28:34 38° NE 21:33:42 10° ESE visible
26 Jun 2.6 23:07:10 10° NW 23:12:29 49° WSW 23:16:19 18° S visible
27 Jun 2.5 22:47:54 10° NW 22:53:17 55° WSW 22:57:25 17° S visible
28 Jun 2.4 22:28:39 10° NW 22:34:06 62° WSW 22:38:34 15° SSE visible
29 Jun 4.4 00:15:13 10° WNW 00:16:42 11° W 00:18:12 10° WSW visible
29 Jun 2.3 22:09:23 10° NW 22:14:53 69° WSW 22:19:44 13° SSE visible
29 Jun 4.3 23:55:17 10° WNW 23:57:36 13° W 23:59:55 10° WSW visible
30 Jun 2.2 21:50:09 10° NNW 21:55:40 76° WSW 22:00:57 11° SSE visible
30 Jun 4.3 23:35:37 10° WNW 23:38:29 14° W 23:41:22 10° SW visible
01 Jul 2.2 21:30:54 10° NNW 21:36:27 84° WSW 21:42:00 10° SSE visible
01 Jul 4.2 23:16:04 10° WNW 23:19:22 16° W 23:22:41 10° SW visible
02 Jul 2.2 21:11:40 10° NNW 21:17:14 88° ENE 21:22:46 10° SSE visible
02 Jul 4.1 22:56:34 10° WNW 23:00:15 18° W 23:03:56 10° SW visible
03 Jul 4.0 22:37:08 10° NW 22:41:07 21° W 22:45:06 10° SSW visible
